Weather History for Mountain Home, AR

Change the Weather History Date:

Thursday, January 24, 2013

  Actual Average (KHRO) Record (KHRO)
Temperature  
Mean Temperature 33 °F 37 °F  
Max Temperature 39 °F 47 °F 81 °F (1943)
Min Temperature 27 °F 27 °F -2 °F (1930)
Degree Days  
Heating Degree Days 32 28  
Month to date heating degree days 692  
Since 1 July heating degree days 2291  
Cooling Degree Days 0 0  
Month to date cooling degree days 0  
Year to date cooling degree days 0  
Moisture  
Dew Point 14 °F    
Average Humidity 50    
Maximum Humidity 69    
Minimum Humidity 40    
Precipitation  
Precipitation 0.00 in 0.08 in 3.60 in (1929)
Month to date precipitation 2.00  
Year to date precipitation 2.00  
Snow  
Snow 0.00 in 0.20 in 1.50 in (1948)
Month to date snowfall 3.0  
Since 1 July snowfall 4.8  
Snow Depth -    
Sea Level Pressure  
Sea Level Pressure 30.33 in    
Wind  
Wind Speed 8 mph (East)    
Max Wind Speed 13 mph    
Max Gust Speed 16 mph    
Visibility 10 miles    
Events      
T = Trace of Precipitation, MM = Missing Value Source: NWS Daily Summary

Daily Weather History Graph

Daily Weather History Graph

Search for Another Location

Airport:

Trip Planner

Search our weather history database for the weather conditions in past years. The results will help you decide how hot, cold, wet, or windy it might be!

Date:

Astronomy

Jan. 24, 2013 Rise Set
Actual Time 7:16 AM CST 5:27 PM CST
Civil Twilight 6:49 AM CST 5:55 PM CST
Nautical Twilight 6:17 AM CST 6:26 PM CST
Astronomical Twilight 5:47 AM CST 6:57 PM CST
Moon 3:31 PM CST (1/24) 5:13 AM CST (1/24)
Length of Visible Light 11h 06m
Length of Day
10h 11m
Waxing Gibbous, 94% of the Moon is Illuminated
Jan 24
Waxing Gibbous
Jan 26
Full
Feb 3
Last Quarter
Feb 10
New
Feb 17
First Quarter

Hourly Weather History & Observations

Time (CST) Temp. Windchill Dew Point Humidity Pressure Visibility Wind Dir Wind Speed Gust Speed Precip Events Conditions
12:53 AM 39.9 °F 35.8 °F 24.1 °F 53% 30.29 in 9.0 mi Variable 5.8 mph - N/A   Overcast
1:53 AM 37.9 °F 32.7 °F 21.9 °F 53% 30.30 in 9.0 mi NNE 6.9 mph - N/A   Overcast
2:53 AM 37.0 °F 31.6 °F 21.9 °F 54% 30.31 in 9.0 mi NNE 6.9 mph - N/A   Overcast
3:53 AM 36.0 °F 29.6 °F 19.9 °F 52% 30.33 in 10.0 mi NE 8.1 mph - N/A   Overcast
4:53 AM 34.0 °F 28.0 °F 18.0 °F 52% 30.34 in 10.0 mi NE 6.9 mph - N/A   Overcast
5:53 AM 33.1 °F 26.1 °F 16.0 °F 50% 30.36 in 10.0 mi NE 8.1 mph - N/A   Overcast
6:53 AM 32.0 °F 25.6 °F 14.0 °F 48% 30.38 in 10.0 mi ENE 6.9 mph - N/A   Overcast
7:53 AM 30.9 °F 23.5 °F 9.0 °F 40% 30.40 in 10.0 mi ENE 8.1 mph - N/A   Overcast
8:53 AM 30.9 °F 22.2 °F 10.0 °F 42% 30.42 in 10.0 mi ENE 10.4 mph 16.1 mph N/A   Overcast
9:53 AM 30.9 °F 22.2 °F 12.0 °F 46% 30.43 in 10.0 mi ENE 10.4 mph - N/A   Overcast
10:53 AM 30.9 °F 23.5 °F 12.9 °F 47% 30.43 in 10.0 mi East 8.1 mph - N/A   Overcast
11:53 AM 32.0 °F 23.6 °F 10.9 °F 42% 30.41 in 10.0 mi East 10.4 mph - N/A   Overcast
12:53 PM 33.1 °F 25.5 °F 12.0 °F 42% 30.37 in 10.0 mi East 9.2 mph - N/A   Overcast
1:53 PM 32.0 °F 24.2 °F 12.9 °F 45% 30.35 in 9.0 mi East 9.2 mph - N/A   Overcast
2:53 PM 32.0 °F 23.6 °F 12.9 °F 45% 30.32 in 9.0 mi SE 10.4 mph - N/A   Overcast
3:24 PM 30.2 °F 21.3 °F 10.4 °F 44% 30.28 in 10.0 mi ESE 10.4 mph - N/A   Overcast
3:53 PM 30.9 °F 21.2 °F 12.9 °F 47% 30.30 in 10.0 mi ESE 12.7 mph 16.1 mph N/A   Overcast
4:53 PM 30.0 °F 22.4 °F 9.0 °F 41% 30.31 in 10.0 mi SE 8.1 mph - N/A   Overcast
5:53 PM 28.9 °F 20.4 °F 10.9 °F 47% 30.30 in 10.0 mi ESE 9.2 mph - N/A   Overcast
6:53 PM 28.9 °F 19.2 °F 12.0 °F 49% 30.29 in 10.0 mi ESE 11.5 mph - N/A   Overcast
7:53 PM 28.0 °F 18.1 °F 12.0 °F 51% 30.28 in 10.0 mi ESE 11.5 mph - N/A   Overcast
8:53 PM 28.0 °F 18.1 °F 12.0 °F 51% 30.27 in 10.0 mi SE 11.5 mph - N/A   Overcast
9:53 PM 27.0 °F 18.7 °F 16.0 °F 63% 30.27 in 10.0 mi SE 8.1 mph - N/A   Overcast
10:53 PM 27.0 °F 18.0 °F 18.0 °F 69% 30.23 in 9.0 mi SE 9.2 mph - N/A   Overcast
11:53 PM 28.0 °F 21.7 °F 18.0 °F 66% 30.20 in 8.0 mi SE 5.8 mph - N/A   Overcast